SB KEPS @ AMSAT $ORB14023.N 2Line Orbital Elements 14023.AMSAT
HR AMSAT ORBITAL ELEMENTS FOR AMATEUR SATELLITES IN NASA FORMAT FROM WA5QGD FORT WORTH,TX January 23, 2014 BID: ORB14023.N
DECODE 2-LINE ELSETS WITH THE FOLLOWING KEY: 1 AAAAAU 00 0 0 BBBBB.BBBBBBBB .CCCCCCCC 00000-0 00000-0 0 DDDZ 2 AAAAA EEE.EEEE FFF.FFFF GGGGGGG HHH.HHHH III.IIII JJ.JJJJJJJJKKKKKZ KEY: A-CATALOGNUM B-EPOCHTIME C-DECAY D-ELSETNUM E-INCLINATION F-RAAN G-ECCENTRICITY H-ARGPERIGEE I-MNANOM J-MNMOTION K-ORBITNUM Z-CHECKSUM
TO ALL RADIO AMATEURS BT
AO-07 1 07530U 74089B 14023.21186782 -.00000018 00000-0 15670-3 0 8786 2 07530 101.4563 009.9104 0011721 216.9898 211.0530 12.53601524793353 FO-29 1 24278U 96046B 14022.70438139 .00000020 00000-0 59423-4 0 2905 2 24278 098.5254 056.5719 0349597 315.1803 163.2206 13.53013299860997 SO-33 1 25509U 98061B 14023.08799356 .00000266 00000-0 38781-4 0 6758 2 25509 031.4321 262.3831 0350636 283.3384 201.0615 14.29286954796373 RS-22 1 27939U 03042A 14023.91849214 .00000704 00000-0 14023-3 0 1555 2 27939 097.7992 205.3285 0012700 203.3519 156.7114 14.64824047551605 VO-52 1 28650U 05017B 14022.84607904 .00001658 00000-0 20107-3 0 6407 2 28650 097.5616 035.1566 0023928 276.7003 205.4459 14.84655252471667 HO-68 1 36122U 09072B 14023.69770435 -.00000043 00000-0 00000 0 0 2601 2 36122 100.2720 079.8530 0007483 207.2355 152.8364 13.16311155197425 AO-73 1 39444U 13066AE 14023.13366688 .00001449 00000-0 20425-3 0 446 2 39444 097.7919 098.6992 0063620 354.7851 005.2689 14.77407631 8043 UO-11 1 14781U 84021B 14023.76068262 .00000703 00000-0 96903-4 0 3976 2 14781 097.8731 086.5846 0007402 292.5102 067.5326 14.81252340606583 AO-16 1 20439U 90005D 14023.77657141 .00000123 00000-0 61697-4 0 9382 2 20439 098.4953 323.9345 0010219 221.0961 198.3508 14.32269928253810 LO-19 1 20442U 90005G 14023.07295360 .00000124 00000-0 61503-4 0 8757 2 20442 098.4654 324.3424 0011361 212.8724 147.1755 14.32475806253909 AO-27 1 22825U 93061C 14022.83041429 .00000120 00000-0 64147-4 0 5791 2 22825 098.6462 329.8231 0008379 012.2119 040.8747 14.29644643 60017 IO-26 1 22826U 93061D 14022.84559937 .00000131 00000-0 68042-4 0 3362 2 22826 098.6404 330.0824 0008761 004.4563 355.6695 14.29937361 60142 GO-32 1 25397U 98043D 14023.51326744 .00000061 00000-0 45255-4 0 2605 2 25397 098.4489 347.0570 0001745 056.6457 083.2020 14.23396134807282 NO-44 1 26931U 01043C 14023.20534143 .00000122 00000-0 79280-4 0 5194 2 26931 067.0518 052.2935 0005794 267.1856 092.8582 14.30025660642874 SO-50 1 27607U 02058C 14023.66795932 .00001428 00000-0 21751-3 0 2834 2 27607 064.5585 312.7601 0033133 067.5207 292.9892 14.73353954596192 CO-55 1 27844U 03031E 14023.63009007 .00000298 00000-0 15659-3 0 8398 2 27844 098.7002 034.4886 0009218 338.8681 134.1807 14.21368438548048 CO-57 1 27848U 03031J 14023.60628019 .00000253 00000-0 13650-3 0 7804 2 27848 098.7092 034.0968 0009051 345.1448 139.8626 14.21074038547966 AO-51 1 28375U 04025K 14023.12989737 .00000268 00000-0 92403-4 0 7549 2 28375 098.2335 335.1283 0084384 071.3658 355.3917 14.41252761503014 CP3 1 31129U 07012N 14023.21383341 .00001013 00000-0 23392-3 0 6568 2 31129 097.9188 008.7173 0100785 102.4710 323.4198 14.54150988358968 CO-65 1 32785U 08021C 14022.76465391 .00001360 00000-0 16702-3 0 8501 2 32785 097.7213 078.7425 0012770 309.4854 170.8434 14.84591857310440 PRISM 1 33493U 09002B 14023.83625892 .00003696 00000-0 41143-3 0 5767 2 33493 098.2358 193.6105 0017413 192.3209 167.7598 14.87667930270706 SOHLA-1 1 33496U 09002E 14022.87339170 .00000443 00000-0 81251-4 0 2561 2 33496 098.1527 143.6351 0005921 355.2164 119.6379 14.70548292268155 TISAT-1 1 36799U 10035E 14023.83369436 .00002220 00000-0 26973-3 0 8417 2 36799 098.0230 114.8563 0015513 072.8547 287.4374 14.84465656191290 STUDSAT 1 36801U 10035G 14021.86467506 .00008547 00000-0 84473-3 0 7550 2 36801 098.0360 118.4448 0010839 055.5203 084.1401 14.92128878191275 ALMASAT-1 1 38078U 12006B 14023.22431493 .00030755 00000-0 67691-3 0 9108 2 38078 069.4768 045.7638 0646663 223.1334 131.7563 14.37782709100713 XATCOBEO 1 38082U 12006F 14023.90035542 .00104091 53032-5 13829-2 0 8782 2 38082 069.4677 344.9631 0421560 190.3038 238.2676 14.95398324102425 CUBEBUG-1 1 39153U 13018D 14023.76183394 .00001232 00000-0 18150-3 0 7887 2 39153 098.0545 104.3474 0019206 094.2420 266.0980 14.77053430 40230 ESTCUBE-1 1 39161U 13021C 14023.82751366 .00000982 00000-0 17393-3 0 7583 2 39161 098.1091 105.7716 0011124 128.7257 231.4932 14.69475997 38396 NOAA-10 1 16969U 86073A 14023.18001703 .00000114 00000-0 63520-4 0 6460 2 16969 098.5264 050.9945 0011297 323.8526 086.6050 14.27707173423337 NOAA-11 1 19531U 88089A 14023.20422252 .00000059 00000-0 52373-4 0 6705 2 19531 098.6932 105.8812 0010825 358.2577 001.8557 14.15051965307234 NOAA-12 1 21263U 91032A 14023.51059567 .00000096 00000-0 58941-4 0 1401 2 21263 098.6783 051.9267 0012785 300.3817 197.2288 14.25619322179944 MET-3/5 1 21655U 91056A 14022.79554840 -.00000067 00000-0 -20494-3 0 8863 2 21655 082.5562 099.1546 0012070 301.8529 058.1418 13.17052490 78847 MET-2/21 1 22782U 93055A 14023.66729285 .00000020 00000-0 44974-5 0 9588 2 22782 082.5504 287.9741 0021273 312.6851 107.7992 13.83723892 30134 OKEAN-4 1 23317U 94066A 14023.65341822 .00001441 00000-0 16568-3 0 4378 2 23317 082.5375 203.3751 0020387 214.5263 253.8218 14.84999305 41659 NOAA-14 1 23455U 94089A 14023.35874565 .00000100 00000-0 75808-4 0 6172 2 23455 098.7875 109.3213 0010505 093.5844 307.9330 14.13943769983482 NOAA-15 1 25338U 98030A 14023.56887240 .00000198 00000-0 84238-4 0 472 2 25338 098.7429 017.7888 0009998 204.1503 155.9697 14.25330255816244 RESURS 1 25394U 98043A 14022.54309455 .00000041 00000-0 35462-4 0 5716 2 25394 098.3933 353.2033 0001032 025.0169 084.1331 14.24362022807582 FENGYUN1 1 25730U 99025A 14022.47798569 .00001261 00000-0 72069-3 0 635 2 25730 098.9013 344.6275 0026922 155.5865 319.9789 14.11252938756961 OKEAN-0 1 25860U 99039A 14023.50303811 .00000713 00000-0 11375-3 0 1557 2 25860 098.0233 348.4271 0001830 121.8664 017.5795 14.74921607780827 NOAA-16 1 26536U 00055A 14023.77083758 .00000196 00000-0 10510-3 0 5359 2 26536 099.0117 083.3707 0009942 230.6398 129.4365 14.12975957687724 NOAA-17 1 27453U 02032A 14023.87157147 .00000143 00000-0 61353-4 0 4397 2 27453 098.3113 031.2130 0010696 236.8769 123.1870 14.24676546602141 NOAA-18 1 28654U 05018A 14023.55264483 .00000276 00000-0 17608-3 0 9277 2 28654 099.1312 000.2868 0013519 312.5622 153.5520 14.11931444447150 NOAA-19 1 33591U 09005A 14023.81282204 .00000363 00000-0 19969-3 0 981 2 33591 098.9286 329.4060 0014001 163.6880 196.5228 14.11626418255624 HUBBLE 1 20580U 90037B 14022.11323434 .00002070 00000-0 13206-3 0 4218 2 20580 028.4694 276.8013 0002944 163.9132 312.9806 15.04545523102692 ISS 1 25544U 98067A 14024.04540488 .00012019 00000-0 21905-3 0 5342 2 25544 051.6494 094.0545 0003731 068.5659 001.0173 15.49893920868960 CO-58 1 28895U 05043F 14023.56823074 .00000843 00000-0 17842-3 0 6783 2 28895 097.8464 232.8651 0018803 106.8089 253.5178 14.61508566439123 FALCON 1 30776U 07006E 14022.21295865 .00007540 00000-0 41622-3 0 7861 2 30776 035.4304 295.6495 0001308 314.2362 176.1247 15.13321796378584 MAST 1 31126U 07012K 14023.53694837 .00000792 00000-0 18368-3 0 9557 2 31126 097.9001 012.1228 0094094 085.8143 036.9101 14.54911362359353 CAPE1 1 31130U 07012P 14023.51347459 .00000920 00000-0 21417-3 0 9603 2 31130 097.9200 008.5957 0101276 102.7193 258.5348 14.53942167358789 COMPASS 1 32787U 08021E 14022.78601399 .00002272 00000-0 26132-3 0 8382 2 32787 097.7234 080.4377 0013081 303.5129 056.4837 14.86682385310576 AAUSAT2 1 32788U 08021F 14022.78672952 .00002445 00000-0 27685-3 0 8225 2 32788 097.7244 081.2632 0012594 302.3849 057.6149 14.87263431310628 DO-64 1 32789U 08021G 14022.84174516 .00005749 00000-0 58814-3 0 8594 2 32789 097.7410 086.5534 0011750 290.3101 123.5538 14.90866482310829 CO-66 1 32791U 08021J 14023.63277302 .00001754 00000-0 20849-3 0 8186 2 32791 097.7233 080.3005 0013535 303.1536 056.8380 14.85597889310580 RS-30 1 32953U 08025A 14023.75684179 .00000010 00000-0 00000 0 0 5855 2 32953 082.5048 291.0241 0019270 109.0512 251.2658 12.43041810257318 METEOR-M 1 35865U 09049A 14023.76083862 -.00000021 00000-0 97884-5 0 1930 2 35865 098.5724 075.4091 0002625 137.0208 223.1177 14.21905372225811 RS-38 1 35869U 09049E 14023.75466792 .00000052 00000-0 42825-4 0 1432 2 35869 098.5654 075.2494 0004941 147.6699 212.4784 14.22173852225845 JUGNU 1 37839U 11058B 14021.50362170 .00000420 00000-0 82712-4 0 5476 2 37839 019.9628 063.8946 0018887 167.5977 305.3306 14.12234897117793 SRMSAT 1 37841U 11058D 14022.28081015 .00000387 00000-0 68219-4 0 5468 2 37841 019.9731 075.5863 0011925 121.0394 321.2154 14.10290267117736 RAX-2 1 37853U 11061D 14023.79289660 .00004936 00000-0 35958-3 0 7041 2 37853 101.7091 344.9900 0226313 113.5913 308.1380 14.86355012121187 AUBIESAT 1 37854U 11061E 14023.50283398 .00005600 00000-0 39659-3 0 6896 2 37854 101.7134 345.9555 0225337 112.3381 010.0574 14.87339086121171 HRBE 1 37855U 11061F 14022.88364640 .00004846 00000-0 34749-3 0 6994 2 37855 101.7135 344.6069 0226820 114.9911 312.4529 14.86839639121069 RS-39 1 38051U 11062C 14023.88674132 .00019140 00000-0 44297-3 0 1857 2 38051 051.6315 219.0989 0006127 343.5920 155.1526 15.42464662111716 E-STAR 1 38079U 12006C 14023.16994855 .00062263 38978-5 99357-3 0 7198 2 38079 069.4664 004.4902 0500088 200.9363 293.2358 14.75480544101834 GOLIAT 1 38085U 12006J 14023.77470941 .00054682 37248-5 88215-3 0 7463 2 38085 069.4729 007.4091 0515580 202.2850 231.8852 14.72050711101804 HORYU-2 1 38340U 12025D 14023.86199015 .00001606 00000-0 26562-3 0 7396 2 38340 098.2448 338.8564 0011472 277.0399 082.9517 14.71713244 90560 RS-40 1 38735U 12041C 14023.59349857 .00000024 00000-0 10000-3 0 4674 2 38735 082.4776 017.6994 0015985 205.8881 154.1401 12.42556334 67620 PROITERES 1 38756U 12047B 14023.81425535 .00000656 00000-0 10638-3 0 5114 2 38756 098.2353 109.7434 0013654 120.5084 239.7470 14.74595359 73901 BEESAT-3 1 39134U 13015E 14022.90667623 .00004219 00000-0 32706-3 0 4800 2 39134 064.8766 237.5292 0013220 331.2215 028.8173 15.02658892 41813 BEESAT-2 1 39136U 13015G 14023.85770251 .00005900 00000-0 44230-3 0 4723 2 39136 064.8756 234.6656 0014352 331.1434 028.9394 15.02377423 41954 CAPE-2 1 39380U 13064A 14023.83442794 .00004088 00000-0 18630-3 0 710 2 39380 040.5163 233.3439 0003579 017.2774 342.8273 15.21494539 9879 TRLBLAZER 1 39382U 13064C 14023.88269528 .00029045 00000-0 11306-2 0 812 2 39382 040.5016 231.8774 0003641 277.9605 082.1407 15.25352916 9881 ZACUBE-1 1 39417U 13066B 14023.74469682 .00001095 00000-0 15629-3 0 1922 2 39417 097.7925 099.2889 0063483 353.0721 006.9606 14.77349692 9362 TRITON-1 1 39427U 13066M 14022.78590434 .00000841 00000-0 15076-3 0 525 2 39427 097.7828 097.1130 0119990 353.5093 006.4544 14.64747903 9104 DELFIN3XT 1 39428U 13066N 14023.78382316 .00001419 00000-0 25778-3 0 561 2 39428 097.7817 097.8059 0131016 350.5181 009.3548 14.62269037 9222 GOMX-1 1 39430U 13066Q 14023.77045984 .00000791 00000-0 16043-3 0 1603 2 39430 097.7768 097.2020 0158611 351.4076 008.4427 14.56204783 9197 $50SAT 1 39436U 13066W 14022.96840040 .00007939 00000-0 92660-3 0 637 2 39436 097.7938 099.2396 0030272 009.4745 350.7005 14.85103098 9289 PUCPSAT-1 1 39442U 13066AC 14023.75916934 .00001845 00000-0 22046-3 0 471 2 39442 097.7952 100.0620 0035929 001.8444 358.2853 14.84969304 8180 /EX
participants (1)
-
Ray Hoad